Flag for U.S.A. Weather past 2 weeks in Portland, Oregon, U.S.A.

Now
59 °F

Passing clouds.


Feels Like: 60 °F
Forecast: 59 / 82 °F
Wind: 3 mph from Northwest

Location: Portland International Airport

Current Time: Aug 4, 2015 at 5:46:06 AM

Latest Report: Aug 4, 2015 at 4:53 AM


Visibility: 10 mi

Pressure: 30.01 "Hg

Humidity: 81%

Dew point: 53 °F

Location of PortlandLocation

Historic Weather in Portland — Graph

°F

Portland temperature yesterday

Maximum temperature yesterday: 84 °F (at 3:53 PM)
Minimum temperature yesterday: 66 °F (at 11:53 PM)
Average temperature yesterday: 73 °F

Past Weeks' High & Low Weather Summary

 TemperatureHumidityPressure
High103 °F (Jul 30, 4:53 PM)97% (Jul 25, 10:53 AM)30.25 "Hg (Jul 25, 10:53 AM)
Low55 °F (Jul 27, 5:53 AM)12% (Jul 30, 3:53 PM)29.81 "Hg (Aug 1, 6:53 PM)
Average72 °F55%30.02 "Hg
* Reported Jul 20 4:53 AM — Aug 4 4:53 AM, Portland, Weather by CustomWeather, © 2015

Note: Actual official high and low records may vary slightly from our data, if they occured in-between our weather recording intervals... More about our weather records

Advertising

Portland weather history for previous 24 hours

 ConditionsComfort  
Time TempWeatherWind HumidityBarometerVisibility
4:53 AM
Tue, Aug 4
59 °FPassing clouds.3 mph81%30.01 "Hg10 mi
3:53 AM60 °FClear.3 mph78%30.00 "Hg10 mi
2:53 AM62 °FClear.6 mph75%29.99 "Hg10 mi
1:53 AM63 °FPassing clouds.6 mph75%29.98 "Hg10 mi
12:53 AM64 °FPassing clouds.9 mph73%29.97 "Hg10 mi
11:53 PM
Mon, Aug 3
66 °FPassing clouds.9 mph68%29.96 "Hg10 mi
10:53 PM67 °FPassing clouds.6 mph68%29.96 "Hg10 mi
9:53 PM71 °FPassing clouds.8 mph59%29.94 "Hg10 mi
8:53 PM76 °FPartly sunny.8 mph47%29.91 "Hg10 mi
7:53 PM79 °FPartly sunny.6 mph44%29.90 "Hg10 mi
6:53 PM79 °FBroken clouds.6 mph48%29.89 "Hg10 mi
5:53 PM81 °FMore clouds than sun.3 mph44%29.89 "Hg10 mi
4:53 PM82 °FMore clouds than sun.9 mph41%29.89 "Hg10 mi
3:53 PM84 °FPartly sunny.9 mph36%29.89 "Hg10 mi
2:53 PM82 °FBroken clouds.7 mph38%29.91 "Hg10 mi
1:53 PM79 °FPartly sunny.No wind44%29.92 "Hg10 mi
12:53 PM76 °FBroken clouds.7 mph47%29.93 "Hg10 mi
11:53 AM72 °FBroken clouds.No wind55%29.94 "Hg10 mi
10:53 AM68 °FBroken clouds.3 mph63%29.94 "Hg10 mi
9:53 AM67 °FLight rain. Cloudy.7 mph66%29.93 "Hg10 mi
8:53 AM67 °FMostly cloudy.7 mph68%29.93 "Hg10 mi
7:53 AM67 °FPartly sunny.3 mph66%29.92 "Hg10 mi
6:53 AM68 °FMostly cloudy.8 mph61%29.92 "Hg10 mi
5:53 AM69 °FMostly cloudy.5 mph61%29.90 "Hg10 mi
Weather by CustomWeather, © 2015

See weather overviewHow to use our weather pages